Date String (YYYY-MM-DD hh:mm:ss) UTC,Instrument flags,absolute air pressure of the measurement (hPa),sample flow rate (lpm),inlet stack bypass flow (lpm),air temperature of the measurement (°C),ambient temperature measured by the external sensor (°C),aerosol sample conditioner tube jacket temperature (°C),OPC LED temperature (°C),internal box temperature (°C),relative humidity of the measurement (%),span deviation,mass concentration of particles derived from Lorenz-Mie calculation of OPC scattering (μg/m³),mass concentration of particles derived from Lorenz-Mie calculation of OPC scattering (μg/m³),mass concentration of particles derived from Lorenz-Mie calculation of OPC scattering (μg/m³)
DateTimeUTC,F1_M11,P_M11,Q1_M11,Q2_M11,T1_M11,T2_M11,T3_M11,T4_M11,T5_M11,U1_M11,ZSPAN_M11,X2_M11,X0_M11,X1_M11
2023-11-13 20:00:00,SystemResetWarning,0833.4,5.01,000.00,028.4,027.7,000.0,036.5,029.9,8.9,0000.0,0004.70,0011.46,0003.84
2023-11-13 20:01:00,SystemResetWarning,0833.4,5.00,000.00,028.4,027.7,000.0,036.5,029.9,8.9,0000.0,0004.69,0011.47,0003.84
2023-11-13 20:02:00,SystemResetWarning,0833.4,5.00,000.00,028.4,027.7,000.0,036.5,029.9,8.9,0000.0,0004.65,0011.37,0003.83
2023-11-13 20:03:00,SystemResetWarning,0833.4,5.00,000.00,028.4,027.8,000.0,036.6,029.9,9.0,0000.0,0004.61,0011.39,0003.82
2023-11-13 20:04:00,SystemResetWarning,0833.4,5.00,000.00,028.5,027.8,000.0,036.6,029.9,9.0,0000.0,0004.59,0011.97,0003.82
2023-11-13 20:05:00,SystemResetWarning,0833.4,5.01,000.00,028.5,027.8,000.0,036.6,030.0,9.0,0000.0,0004.60,0012.04,0003.81
2023-11-13 20:06:00,SystemResetWarning,0833.4,4.99,000.00,028.5,027.8,000.0,036.6,030.0,8.9,0000.0,0004.57,0011.93,0003.80
2023-11-13 20:07:00,SystemResetWarning,0833.4,4.99,000.00,028.5,027.8,000.0,036.6,030.0,8.9,0000.0,0004.58,0012.41,0003.79
2023-11-13 20:08:00,SystemResetWarning,0833.4,4.99,000.00,028.5,027.8,000.0,036.7,030.0,8.9,0000.0,0004.58,0011.73,0003.78
2023-11-13 20:09:00,SystemResetWarning,0833.4,5.00,000.00,028.6,027.9,000.0,036.7,030.0,8.9,0000.0,0004.55,0012.04,0003.76
2023-11-13 20:10:00,SystemResetWarning,0833.4,5.01,000.00,028.6,027.9,000.0,036.7,030.0,8.9,0000.0,0004.48,0012.49,0003.75
2023-11-13 20:11:00,SystemResetWarning,0833.4,5.01,000.00,028.6,027.9,000.0,036.7,030.0,9.0,0000.0,0004.47,0012.86,0003.76
2023-11-13 20:12:00,SystemResetWarning,0833.4,5.00,000.00,028.6,027.9,000.0,036.7,030.1,9.0,0000.0,0004.47,0012.79,0003.76
2023-11-13 20:13:00,SystemResetWarning,0833.3,5.00,000.00,028.6,027.9,000.0,036.8,030.1,8.9,0000.0,0004.48,0012.80,0003.75
2023-11-13 20:14:00,SystemResetWarning,0833.3,5.00,000.00,028.7,027.9,000.0,036.8,030.1,8.8,0000.0,0004.47,0014.01,0003.74
2023-11-13 20:15:00,SystemResetWarning,0833.3,5.00,000.00,028.7,028.0,000.0,036.8,030.1,8.7,0000.0,0004.47,0014.51,0003.74
2023-11-13 20:16:00,SystemResetWarning,0833.2,5.00,000.00,028.7,028.0,000.0,036.8,030.2,8.8,0000.0,0004.45,0014.71,0003.74
2023-11-13 20:17:00,SystemResetWarning,0833.2,5.00,000.00,028.7,028.0,000.0,036.8,030.2,8.9,0000.0,0004.49,0014.97,0003.75
2023-11-13 20:18:00,SystemResetWarning,0833.2,4.99,000.00,028.7,028.0,000.0,036.8,030.2,8.8,0000.0,0004.48,0014.35,0003.75
2023-11-13 20:19:00,SystemResetWarning,0833.2,4.99,000.00,028.8,028.1,000.0,036.9,030.2,8.7,0000.0,0004.48,0013.88,0003.75
2023-11-13 20:20:00,SystemResetWarning,0833.2,5.00,000.00,028.8,028.1,000.0,036.9,030.2,8.8,0000.0,0004.52,0013.91,0003.74
2023-11-13 20:21:00,SystemResetWarning,0833.2,5.00,000.00,028.8,028.1,000.0,036.9,030.2,8.7,0000.0,0004.55,0013.03,0003.75
2023-11-13 20:22:00,SystemResetWarning,0833.2,5.00,000.00,028.8,028.1,000.0,036.9,030.2,8.7,0000.0,0004.56,0012.50,0003.75
2023-11-13 20:23:00,SystemResetWarning,0833.2,5.00,000.00,028.8,028.1,000.0,036.9,030.2,8.7,0000.0,0004.55,0012.17,0003.77
2023-11-13 20:24:00,SystemResetWarning,0833.2,5.00,000.00,028.8,028.1,000.0,036.9,030.2,8.8,0000.0,0004.58,0012.25,0003.79
2023-11-13 20:25:00,SystemResetWarning,0833.2,5.00,000.00,028.9,028.1,000.0,037.0,030.2,8.8,0000.0,0004.60,0010.98,0003.81
2023-11-13 20:26:00,SystemResetWarning,0833.2,5.01,000.00,028.9,028.1,000.0,037.0,030.3,8.7,0000.0,0004.60,0009.86,0003.82
2023-11-13 20:27:00,SystemResetWarning,0833.3,5.00,000.00,028.9,028.1,000.0,037.0,030.3,8.7,0000.0,0004.66,0010.28,0003.83
2023-11-13 20:28:00,SystemResetWarning,0833.2,4.99,000.00,028.9,028.1,000.0,037.0,030.3,8.6,0000.0,0004.69,0010.49,0003.85
2023-11-13 20:29:00,SystemResetWarning,0833.2,4.99,000.00,028.9,028.1,000.0,037.0,030.3,8.7,0000.0,0004.77,0011.09,0003.87
2023-11-13 20:30:00,SystemResetWarning,0833.2,5.01,000.00,028.9,028.2,000.0,037.0,030.3,8.6,0000.0,0004.80,0011.05,0003.88
2023-11-13 20:31:00,SystemResetWarning,0833.2,5.01,000.00,029.0,028.2,000.0,037.1,030.3,8.6,0000.0,0004.79,0010.65,0003.91
2023-11-13 20:32:00,SystemResetWarning,0833.2,5.00,000.00,029.0,028.0,000.0,037.1,030.4,8.6,0000.0,0004.84,0011.34,0003.93
2023-11-13 20:33:00,SystemResetWarning,0833.1,4.98,000.00,029.0,026.4,000.0,037.1,030.3,8.6,0000.0,0004.84,0011.25,0003.94
2023-11-13 20:34:00,SystemResetWarning,0833.2,5.03,000.00,028.8,024.6,000.0,037.0,029.9,8.8,0000.0,0004.84,0011.19,0003.94
2023-11-13 20:35:00,SystemResetWarning,0833.0,4.99,000.00,028.7,024.4,000.0,036.9,029.6,8.8,0000.0,0004.84,0011.55,0003.94
2023-11-13 20:36:00,SystemResetWarning,0833.1,4.99,000.00,028.5,024.7,000.0,036.9,029.3,9.0,0000.0,0004.86,0011.55,0003.96
2023-11-13 20:37:00,SystemResetWarning,0833.0,5.02,000.00,028.4,025.2,000.0,036.8,029.3,9.0,0000.0,0004.90,0011.94,0003.98
2023-11-13 20:38:00,SystemResetWarning,0833.1,5.00,000.00,028.3,025.6,000.0,036.8,029.4,8.9,0000.0,0004.91,0011.77,0003.99
2023-11-13 20:39:00,SystemResetWarning,0833.2,5.00,000.00,028.3,026.0,000.0,036.8,029.5,9.0,0000.0,0004.88,0012.14,0004.00
2023-11-13 20:40:00,SystemResetWarning,0833.1,5.00,000.00,028.3,026.3,000.0,036.7,029.5,9.0,0000.0,0004.85,0013.34,0004.00
2023-11-13 20:41:00,SystemResetWarning,0833.3,5.00,000.00,028.3,026.6,000.0,036.7,029.6,9.0,0000.0,0004.85,0014.35,0004.01
2023-11-13 20:42:00,SystemResetWarning,0833.3,4.99,000.00,028.3,026.8,000.0,036.7,029.7,9.1,0000.0,0004.87,0014.75,0004.02
2023-11-13 20:43:00,SystemResetWarning,0833.3,5.00,000.00,028.3,027.0,000.0,036.7,029.7,9.0,0000.0,0004.94,0014.96,0004.04
2023-11-13 20:44:00,SystemResetWarning,0833.2,5.02,000.00,028.4,027.1,000.0,036.7,029.8,8.9,0000.0,0004.97,0014.96,0004.04
2023-11-13 20:45:00,SystemResetWarning,0832.9,5.01,000.00,028.4,027.2,000.0,036.7,029.8,8.9,0000.0,0004.97,0015.86,0004.04
2023-11-13 20:46:00,SystemResetWarning,0833.0,4.99,000.00,028.4,027.3,000.0,036.7,029.9,8.9,0000.0,0004.93,0015.50,0004.04
2023-11-13 20:47:00,SystemResetWarning,0833.0,4.99,000.00,028.4,027.5,000.0,036.7,029.9,8.9,0000.0,0004.94,0015.51,0004.05
2023-11-13 20:48:00,SystemResetWarning,0832.9,5.00,000.00,028.5,027.5,000.0,036.7,030.0,8.8,0000.0,0004.89,0016.30,0004.04
2023-11-13 20:49:00,SystemResetWarning,0832.9,5.00,000.00,028.5,027.6,000.0,036.7,030.0,8.8,0000.0,0004.83,0016.72,0004.03
2023-11-13 20:50:00,SystemResetWarning,0832.9,5.00,000.00,028.5,027.7,000.0,036.7,030.0,8.8,0000.0,0004.83,0016.23,0004.03
2023-11-13 20:51:00,SystemResetWarning,0833.0,5.00,000.00,028.6,027.7,000.0,036.7,030.1,8.8,0000.0,0004.83,0014.60,0004.04
2023-11-13 20:52:00,SystemResetWarning,0832.9,5.00,000.00,028.6,027.8,000.0,036.8,030.1,8.8,0000.0,0004.84,0013.59,0004.02
2023-11-13 20:53:00,SystemResetWarning,0833.0,5.00,000.00,028.6,027.8,000.0,036.8,030.1,8.7,0000.0,0004.82,0013.35,0004.01
2023-11-13 20:54:00,SystemResetWarning,0833.0,5.01,000.00,028.7,027.9,000.0,036.8,030.2,8.8,0000.0,0004.75,0012.53,0004.00
2023-11-13 20:55:00,SystemResetWarning,0832.9,5.00,000.00,028.7,027.9,000.0,036.8,030.2,8.7,0000.0,0004.72,0012.44,0003.98
2023-11-13 20:56:00,SystemResetWarning,0833.3,4.99,000.00,028.7,028.0,000.0,036.8,030.2,8.7,0000.0,0004.72,0011.56,0003.96
2023-11-13 20:57:00,SystemResetWarning,0833.3,5.00,000.00,028.7,028.0,000.0,036.8,030.2,8.7,0000.0,0004.73,0011.82,0003.94
2023-11-13 20:58:00,SystemResetWarning,0833.5,5.00,000.00,028.8,028.0,000.0,036.9,030.3,8.7,0000.0,0004.69,0012.14,0003.92
2023-11-13 20:59:00,SystemResetWarning,0833.3,5.00,000.00,028.8,028.0,000.0,036.9,030.3,8.7,0000.0,0004.67,0010.98,0003.90
